Orbital Elements at Epoch 2459200.5 (2020-Dec-17.0) TDB
Reference: JPL 12 (heliocentric ecliptic J2000)
Element | Value | Uncertainty (1-sigma) | Units |
e | .1698040667452772 | 6.385e-08 | |
a | 2.577930797386105 | 2.2689e-08 | au |
q | 2.140187664202049 | 1.7063e-07 | au |
i | 1.967335588516882 | 5.5549e-06 | deg |
node | 280.2295860280243 | 0.00041486 | deg |
peri | 11.94931497426042 | 0.00041661 | deg |
M | 321.6783321581733 | 4.0348e-05 | deg |
tp | 2459361.433779471816 (2021-May-26.93377947) | 0.00016932 | TDB |
period | 1511.838181182154 4.14 | 1.9959e-05 5.464e-08 | d yr |
n | .238120722495912 | 3.1436e-09 | deg/d |
Q | 3.015673930570161 | 2.6542e-08 | au |
|
| | Orbit Determination Parameters
Additional Information
|